Simultaneous Nadir Overpasses (SNOs) Predictions

Prediction of SNOs between FY3D and METOP-C Satellite Orbit:

Table of predicted SNOs for the next 14.0 days since TLE Epoch: 12/3/2023
Index Date (FY3D) Time (FY3D) Lat,Lon (FY3D) SZA (FY3D ) Date (METOP-C) Time (METOP-C) Lat,Lon (METOP-C) SZA (METOP-C ) Distance(km) Time Diff (sec)
1 12/03/2023 16:06:08 -75.94, 114.31 82.01 12/03/2023 16:07:13 -75.90, 117.93 82.05 97.84 65
2 12/03/2023 16:56:49 75.67, -77.46 97.72 12/03/2023 16:57:58 75.67, -75.51 97.72 53.74 69
3 12/03/2023 17:47:31 -75.57, 90.19 82.38 12/03/2023 17:48:43 -75.51, 91.33 82.44 32.43 72
4 12/03/2023 18:38:13 75.34,-101.77 97.40 12/03/2023 18:39:26 75.36,-101.79 97.42 2.89 73
5 12/03/2023 19:28:57 -75.33, 65.57 82.61 12/03/2023 19:30:08 -75.35, 65.50 82.59 3.03 71
6 12/03/2023 20:19:44 75.33,-127.13 97.40 12/03/2023 20:20:48 75.35,-127.18 97.41 2.27 64
7 12/03/2023 21:10:28 -75.32, 40.22 82.61 12/03/2023 21:11:30 -75.33, 40.10 82.60 3.37 62
8 12/03/2023 22:01:15 75.32,-152.48 97.40 12/03/2023 22:02:10 75.33,-152.58 97.40 2.87 55
9 12/03/2023 22:52:00 -75.36, 14.72 82.56 12/03/2023 22:52:51 -75.36, 14.85 82.56 3.64 51
10 12/03/2023 23:42:47 75.36,-177.98 97.45 12/03/2023 23:43:31 75.35,-177.84 97.44 4.10 44
11 12/04/2023 00:33:31 -75.35, -10.64 82.56 12/04/2023 00:34:13 -75.34, -10.55 82.57 2.75 42
12 12/04/2023 01:24:17 75.31, 156.81 97.40 12/04/2023 01:24:53 75.33, 156.76 97.43 3.37 36
13 12/04/2023 02:15:02 -75.35, -35.99 82.56 12/04/2023 02:15:35 -75.32, -35.95 82.58 2.89 33
14 12/04/2023 03:05:48 75.30, 131.46 97.41 12/04/2023 03:06:15 75.32, 131.37 97.42 3.16 27
15 12/04/2023 03:56:33 -75.34, -61.34 82.56 12/04/2023 03:56:57 -75.30, -61.35 82.59 3.93 24
16 12/04/2023 04:47:19 75.29, 106.10 97.41 12/04/2023 04:47:37 75.30, 105.97 97.41 3.87 18
17 12/04/2023 05:38:04 -75.33, -86.70 82.56 12/04/2023 05:38:18 -75.33, -86.60 82.55 2.62 14
18 12/04/2023 06:28:51 75.33, 80.60 97.46 12/04/2023 06:28:58 75.32, 80.71 97.45 3.10 7
19 12/04/2023 07:19:35 -75.32,-112.05 82.55 12/04/2023 07:19:40 -75.31,-112.00 82.57 1.84 5
20 12/04/2023 08:10:22 75.32, 55.25 97.46 12/04/2023 08:10:20 75.30, 55.31 97.44 2.62 2
21 12/04/2023 09:01:06 -75.31,-137.41 82.55 12/04/2023 09:01:02 -75.29,-137.40 82.58 2.51 4
22 12/04/2023 09:51:53 75.31, 29.90 97.46 12/04/2023 09:51:42 75.29, 29.92 97.43 3.25 11
23 12/04/2023 10:42:37 -75.31,-162.76 82.55 12/04/2023 10:42:23 -75.32,-162.66 82.54 3.23 14
24 12/04/2023 11:33:24 75.31, 4.54 97.46 12/04/2023 11:33:03 75.31, 4.66 97.47 3.40 21
25 12/04/2023 12:24:08 -75.30, 171.89 82.55 12/04/2023 12:23:45 -75.30, 171.94 82.55 1.63 23
26 12/04/2023 13:14:55 75.30, -20.81 97.46 12/04/2023 13:14:25 75.29, -20.74 97.46 2.12 30
27 12/04/2023 14:05:39 -75.29, 146.53 82.55 12/04/2023 14:05:07 -75.28, 146.55 82.56 1.15 32
28 12/04/2023 14:56:26 75.29, -46.16 97.46 12/04/2023 14:55:47 75.27, -46.14 97.45 1.95 39
29 12/04/2023 15:47:10 -75.28, 121.18 82.55 12/04/2023 15:46:29 -75.26, 121.15 82.57 2.53 41
30 12/04/2023 16:37:57 75.28, -71.52 97.46 12/04/2023 16:37:09 75.25, -71.53 97.44 3.09 48
31 12/04/2023 17:28:41 -75.27, 95.82 82.55 12/04/2023 17:27:50 -75.29, 95.89 82.53 2.47 51
32 12/04/2023 18:19:28 75.27, -96.87 97.47 12/04/2023 18:18:30 75.28, -96.79 97.47 2.53 58
33 12/04/2023 19:10:12 -75.27, 70.47 82.54 12/04/2023 19:09:12 -75.27, 70.49 82.54 0.71 60
34 12/04/2023 20:00:59 75.27,-122.23 97.47 12/04/2023 19:59:52 75.26,-122.19 97.46 1.17 67
35 12/04/2023 20:51:43 -75.26, 45.12 82.54 12/04/2023 20:50:34 -75.25, 45.10 82.55 1.16 69
36 12/04/2023 21:42:29 75.21,-147.44 97.42 12/04/2023 21:41:15 75.20,-147.73 97.41 8.37 74
37 12/04/2023 22:33:11 -75.11, 20.19 82.68 12/04/2023 22:31:58 -75.13, 19.42 82.66 22.16 73
38 12/04/2023 23:23:52 74.82,-171.68 97.05 12/04/2023 23:22:44 74.84,-174.08 97.06 70.05 68
39 12/05/2023 00:14:34 -74.72, -4.07 83.05 12/05/2023 00:13:28 -74.73, -7.06 83.05 87.60 66



Historial Predications of SNOs between FY3D and METOP-C
